Regional Weather Roundup
Issued by NWS

Home | Current Version | Previous Version | Graphics & Text | Print | Product List | Glossary On
Versions: 1 2 3 4 5 6 7 8 9 10 11 12 13 14 15 16 17 18 19 20 21 22 23 24 25 26 27 28 29 30 31 32 33 34 35 36 37 38 39 40 41 42 43 44 45 46 47 48 49 50
000
ASUS45 KCYS 290610
RWRWY

WYOMING REGIONAL WEATHER ROUNDUP
NATIONAL WEATHER SERVICE CHEYENNE WY
1100 PM MST WED JAN 28 2015

NOTE:  "FAIR" INDICATES FEW OR NO CLOUDS BELOW 12,000 FEET
WITH NO SIGNIFICANT WEATHER AND/OR OBSTRUCTIONS TO VISIBILITY.

WYZ001-290700-
YELLOWSTONE NATIONAL PARK

CITY           SKY/WX    TMP DP  RH WIND       PRES   REMARKS
LK YELLOWSTONE   N/A     21  19  92 CALM      30.41R
6HR MIN TEMP:  15; 6HR MAX TEMP:  30;

W YELLOWSTONE  NOT AVBL

$$
WYZ002>013-054>058-071-098>099-290700-
NORTHERN WYOMING

CITY           SKY/WX    TMP DP  RH WIND       PRES   REMARKS
JACKSON        FAIR      27  25  93 N8        30.38R WCI  18
CODY           CLOUDY    36  28  75 NW5       30.39R WCI  32
GREYBULL       FOG       32  32 100 NW5       30.37R VSB 1/4 WCI  27
6HR MIN TEMP:  32; 6HR MAX TEMP:  36;

WORLAND        MOCLDY    33  29  85 NE3       30.37R
6HR MIN TEMP:  32; 6HR MAX TEMP:  37;

SHERIDAN       CLOUDY    35  29  78 W3        30.40R
6HR MIN TEMP:  33; 6HR MAX TEMP:  43;

BUFFALO        FAIR      32  29  88 N10       30.38R WCI  24
6HR MIN TEMP:  32; 6HR MAX TEMP:  42; 6HR PCP: TRACE;

GILLETTE       FAIR      27  24  89 NW5       30.37R WCI  22
6HR MIN TEMP:  27; 6HR MAX TEMP:  40;

HULETT           N/A    N/A N/A N/A MISG        N/A
NEWCASTLE      FAIR      28  27  93 N7        30.35R WCI  21

$$
WYZ014>020-022>026-101>103-290700-
CENTRAL WYOMING

CITY           SKY/WX    TMP DP  RH WIND       PRES   REMARKS
BIG PINEY      FAIR      26  21  81 NW10      30.35S WCI  16
6HR MIN TEMP:  24; 6HR MAX TEMP:  37;

PINEDALE       MOCLDY    25  19  80 NW8       30.35R WCI  16
DUBOIS         FAIR      27  21  80 CALM      30.35R
LANDER         CLOUDY    37  30  75 CALM      30.35R
6HR MIN TEMP:  36; 6HR MAX TEMP:  42;

RIVERTON       CLOUDY    35  28  75 CALM      30.37R
6HR MIN TEMP:  35; 6HR MAX TEMP:  43; 6HR PCP: TRACE;

CASPER         CLOUDY    34  30  85 N5        30.36R WCI  30
6HR MIN TEMP:  33; 6HR MAX TEMP:  38; 6HR PCP: TRACE;

DOUGLAS        CLOUDY    36  27  69 NW8       30.37R WCI  30
6HR MIN TEMP:  36; 6HR MAX TEMP:  42;


$$
WYZ021-027>030-104>119-290700-
SOUTHERN WYOMING

CITY           SKY/WX    TMP DP  RH WIND       PRES   REMARKS
EVANSTON       MOCLDY    32  29  88 NW6       30.36S WCI  26
6HR MIN TEMP:  32; 6HR MAX TEMP:  37;

KEMMERER       FAIR      28  28 100 NW9       30.36R WCI  20
FORT BRIDGER   FAIR      32  32  98 W10       30.38S WCI  24
ROCK SPRINGS   CLOUDY    33  29  85 W8        30.34R WCI  26
6HR MIN TEMP:  33; 6HR MAX TEMP:  39;

DIXON          CLOUDY    34  32  91 CALM      30.35S
RAWLINS        CLOUDY    34  29  82 CALM      30.34R
6HR MIN TEMP:  33; 6HR MAX TEMP:  39; 6HR PCP: TRACE;

SARATOGA       CLOUDY    34  32  93 CALM      30.33R
LARAMIE        FLURRIES  30  28  92 NW9       30.32R WCI  22
6HR MIN TEMP:  30; 6HR MAX TEMP:  36; 6HR PCP:  0.01;

CHEYENNE       CLOUDY    37  25  61 N13G20    30.32R WCI  29
6HR MIN TEMP:  37; 6HR MAX TEMP:  41; 6HR PCP: TRACE;

TORRINGTON     CLOUDY    40  24  53 NW17      30.32R WCI  31
6HR MIN TEMP:  40; 6HR MAX TEMP:  45;

PINE BLUFFS    CLOUDY    37  28  70 N14       30.32R WCI  29

$$



USA.gov is the U.S. government's official web portal to all federal, state and local government web resources and services.